Wind_Speed
46 52 45 49 47 47 44 42 42 45 48 49 50 54 55 55 58 63 67 70 72 76 79 83 84 90 98 102 111 117 123 127 120 110 92 62 56 58 53 52 47 47 46 51 57
51 49 46 47 46 45 45 43 44 46 47 49 54 55 57 61 64 67 70 72 75 80 84 89 93 98 103 109 116 124 129 130 133 119 74 57 49 49 38 37 36 38 38 48 55
49 51 50 45 44 44 45 43 47 44 48 52 55 56 60 65 66 70 73 76 80 84 89 93 99 104 108 113 121 128 130 133 135 98 67 60 47 33 28 31 37 38 41 48 61
48 46 43 43 44 43 47 45 44 47 51 55 58 60 63 66 69 72 74 79 83 88 94 98 104 110 115 119 126 131 139 133 115 86 67 55 42 26 26 27 35 37 48 60 66
41 37 40 41 40 43 46 45 48 49 54 57 60 63 65 68 71 73 77 80 84 90 99 105 109 115 119 122 129 132 137 132 110 77 59 50 33 23 24 28 32 39 52 65 69
42 39 37 38 40 44 45 48 50 52 54 59 63 66 68 69 71 76 79 83 88 96 101 108 113 119 123 126 133 135 137 136 99 74 54 43 27 17 23 28 33 39 50 65 69
41 38 38 39 43 46 48 52 54 55 57 62 65 68 72 72 72 74 80 84 91 99 105 113 117 122 127 128 130 140 141 139 100 71 47 34 19 19 23 29 34 41 47 60 70
43 43 41 44 47 49 52 54 54 57 59 61 66 69 71 74 77 80 82 85 93 101 107 118 117 123 129 132 141 142 145 128 95 67 41 27 14 19 24 31 36 41 47 57 64
45 43 41 43 48 51 51 55 57 59 61 62 68 71 73 74 79 82 86 90 97 104 113 119 122 126 132 136 140 144 148 121 89 63 36 21 12 21 27 33 36 42 45 53 59
49 48 49 48 47 51 53 54 57 62 63 65 69 72 72 75 78 80 87 91 97 108 114 117 121 128 133 135 136 133 142 119 84 60 33 16 10 20 25 32 36 42 46 55 67
50 50 51 49 51 48 54 60 63 63 65 66 72 72 74 77 80 85 87 91 99 105 110 115 121 127 133 138 140 142 147 117 82 57 29 11 9 20 24 33 39 47 53 60 75
55 55 54 56 57 59 59 61 61 64 68 69 73 76 77 79 84 87 92 94 98 103 108 116 121 130 138 141 141 142 138 110 78 57 26 8 8 20 24 34 41 48 54 70 82
63 62 60 61 62 64 63 61 65 67 69 69 71 74 75 81 88 92 94 95 97 103 110 116 123 131 136 141 145 142 127 104 75 55 26 9 8 20 27 36 41 49 60 73 96
66 58 63 64 55 61 68 63 60 70 67 70 72 73 77 80 85 91 89 93 96 105 110 114 122 127 135 141 138 137 120 99 69 53 26 7 8 21 30 38 42 52 70 81 105
68 71 70 73 69 68 70 63 65 68 67 71 71 75 78 79 85 84 87 92 96 102 108 113 121 123 133 136 137 129 118 91 64 48 26 9 8 22 34 40 45 59 74 92 110
72 73 73 76 72 68 65 60 66 69 74 74 73 74 75 79 87 86 89 93 98 101 107 112 118 125 133 136 134 127 110 84 59 46 25 11 11 22 35 45 47 60 82 101 115
73 74 73 75 70 68 67 63 69 69 75 74 72 75 75 81 86 88 94 99 95 96 105 109 115 122 123 131 136 125 104 81 59 45 24 11 15 22 35 47 50 62 89 108 114
74 74 74 75 74 67 66 66 72 75 77 73 71 77 75 81 84 93 99 93 93 99 104 107 112 120 128 127 127 121 103 84 60 44 28 11 16 23 33 45 53 65 90 114 114
80 77 74 71 72 69 73 72 70 74 73 74 75 72 78 81 84 93 94 89 92 98 102 107 112 120 124 128 127 122 103 87 59 45 27 13 17 25 32 44 57 65 89 110 115
84 81 78 71 71 75 72 73 74 73 75 75 71 73 74 82 85 96 87 90 92 96 97 104 111 116 120 126 128 114 104 92 58 46 27 12 18 26 32 44 60 67 86 106 113
80 82 79 79 82 74 76 72 70 71 76 74 70 75 81 83 88 93 86 90 92 91 97 99 111 113 118 116 116 116 105 86 56 45 27 14 18 28 36 44 60 71 85 102 112
77 81 79 78 78 77 74 72 74 73 74 69 72 78 82 83 88 80 84 86 89 90 94 98 106 110 114 113 113 108 113 83 61 48 26 15 17 27 37 45 58 73 83 97 111
79 73 74 74 69 70 70 69 71 70 73 75 80 83 81 84 84 78 85 87 86 86 90 96 104 108 110 113 116 109 115 86 61 52 29 16 18 25 35 45 57 71 86 97 107
92 77 73 76 78 75 72 77 79 79 78 78 79 80 81 84 81 75 81 81 86 86 88 99 104 104 108 109 116 114 117 88 66 52 31 17 18 25 35 45 55 67 87 98 108
94 86 82 75 78 78 81 83 81 82 81 83 83 80 78 77 76 78 79 82 83 84 90 97 100 101 107 110 113 114 116 87 65 48 32 17 18 24 33 43 54 64 76 96 108
87 90 86 84 80 81 81 81 82 83 84 78 79 77 71 69 74 78 77 79 81 84 92 97 96 100 106 108 109 116 105 79 61 46 33 18 17 24 32 41 49 64 73 90 106
81 86 87 84 83 75 76 78 77 76 79 79 75 74 72 69 74 73 77 78 78 85 90 94 95 99 101 105 111 112 101 73 58 39 26 18 16 24 30 38 46 58 74 89 103
Wind_Direction
296 302 300 305 307 309 312 314 312 311 314 317 322 322 325 327 329 328 327 326 327 327 328 328 329 330 335 332 333 331 333 330 332 333 326 313 307 297 291 274 265 258 237 224 214
296 300 300 303 308 309 311 311 309 314 315 320 322 323 325 327 330 329 328 327 327 328 328 329 329 332 332 333 331 334 333 332 333 330 324 313 308 301 282 262 245 233 222 216 205
294 298 299 303 303 308 308 309 312 316 319 322 323 325 327 328 328 328 327 327 328 328 328 330 331 331 331 333 334 333 332 334 334 329 333 317 312 303 277 242 230 220 202 199 200
292 295 298 301 307 310 307 312 319 322 322 321 324 325 326 325 325 326 325 326 326 327 328 330 331 331 332 334 334 335 336 337 337 331 325 321 312 295 268 242 224 209 197 189 195
292 299 301 305 310 309 313 317 321 321 321 322 323 322 322 323 324 324 324 324 325 327 328 330 331 332 334 334 335 336 339 342 341 334 329 320 310 292 257 232 219 204 199 191 188
292 294 298 302 305 307 309 312 316 317 320 321 321 320 321 322 323 323 324 325 325 326 328 329 329 333 333 335 336 336 340 343 344 337 329 321 310 278 241 229 216 206 200 193 185
287 291 289 296 301 306 308 309 311 313 317 319 318 320 321 320 320 321 324 325 324 325 328 328 329 331 333 335 335 339 342 341 346 340 332 321 305 253 229 219 213 201 200 197 184
288 289 287 295 304 308 309 305 307 309 313 317 319 320 319 319 321 323 323 323 324 327 327 328 329 331 333 334 338 338 340 343 347 342 333 321 291 245 217 209 204 197 197 194 186
289 291 296 302 305 309 310 308 306 307 310 316 317 318 319 320 320 323 324 325 327 328 328 329 329 332 333 335 335 335 340 345 349 343 334 318 268 232 212 206 195 190 190 187 180
285 289 292 296 302 308 308 307 306 308 310 313 315 317 319 322 321 322 323 324 327 329 329 328 330 330 332 332 335 338 344 344 350 346 334 315 255 226 207 206 188 184 181 178 173
282 284 287 289 295 302 305 302 304 306 308 311 313 314 316 320 320 321 323 326 330 330 330 328 328 330 330 333 337 340 345 345 349 349 335 312 236 219 200 199 187 179 176 171 171
277 278 282 286 290 294 294 298 303 303 305 308 309 313 317 319 321 323 323 325 330 330 329 327 329 329 332 334 337 342 346 345 349 349 337 303 238 206 195 195 189 178 167 167 167
273 281 281 285 288 291 293 298 301 302 304 309 309 313 315 317 320 323 325 324 327 328 328 327 329 331 333 337 339 341 345 344 348 350 335 299 215 207 189 195 187 178 162 167 166
269 268 277 279 289 291 294 295 292 301 307 307 309 311 315 319 323 325 324 325 327 328 328 328 331 334 334 336 339 343 347 345 347 349 336 281 209 202 189 192 187 177 164 166 166
271 270 273 279 279 285 291 294 296 300 302 305 309 310 313 316 320 322 323 325 326 328 327 329 330 332 332 333 339 343 348 345 346 347 339 280 206 203 189 190 188 176 169 167 167
268 270 275 278 282 288 291 289 287 293 301 303 308 310 311 318 320 321 322 323 324 328 328 329 330 331 331 334 338 341 351 346 346 344 338 276 209 204 192 186 188 178 170 170 169
268 270 272 275 279 284 289 281 281 290 299 301 307 310 310 312 318 321 324 324 325 326 327 330 330 331 334 336 339 341 353 349 342 341 335 268 211 203 197 190 184 179 173 173 173
264 269 272 275 279 281 284 281 285 291 295 298 305 307 311 312 313 318 322 323 324 326 326 328 328 331 331 334 336 340 350 350 343 341 330 262 218 202 195 193 181 180 176 174 174
262 266 270 273 275 278 283 285 284 290 294 298 302 307 312 312 311 314 320 320 324 326 328 327 329 330 332 334 335 337 350 350 345 339 327 272 222 195 194 194 183 180 178 178 177
262 262 265 269 273 277 281 282 285 287 291 294 299 304 309 312 310 315 316 319 323 326 329 328 329 332 332 333 334 339 348 350 342 340 326 280 222 195 195 191 190 180 181 181 180
259 260 265 266 270 274 279 282 284 285 289 292 300 306 311 311 310 314 315 319 323 326 327 330 330 332 332 334 335 336 347 347 345 341 324 281 223 207 190 191 193 185 182 182 182
255 259 264 266 268 272 275 280 282 286 288 288 295 306 309 308 311 312 314 319 322 327 328 330 330 331 333 334 336 341 347 347 345 341 324 283 228 209 195 191 194 190 183 185 183
254 259 259 262 267 271 276 279 282 283 284 288 294 300 306 305 310 310 315 318 322 326 328 330 331 330 332 332 337 339 347 347 343 345 324 285 234 210 200 193 192 196 184 187 186
250 254 256 261 265 266 271 275 280 285 286 286 297 301 303 303 308 310 315 316 322 325 327 327 328 331 332 331 335 337 344 345 345 343 327 287 236 214 202 194 195 194 191 188 188
250 252 254 259 262 264 271 274 277 281 284 287 295 302 301 304 306 309 314 317 321 324 326 327 327 331 332 332 333 337 343 345 343 337 323 288 243 215 207 198 194 195 198 191 188
249 252 252 255 258 261 268 273 277 280 285 292 296 300 301 303 305 311 311 317 319 323 325 325 328 331 331 330 332 335 344 342 339 333 317 288 246 220 209 202 196 194 197 196 193
249 251 251 253 257 260 264 268 274 282 284 291 294 296 301 302 305 308 311 314 317 321 324 326 327 331 328 329 330 333 340 341 336 324 310 288 244 219 214 204 198 195 194 198 196
Height
10861 10859 10856 10853 10849 10846 10843 10840 10835 10829 10825 10819 10814 10809 10804 10798 10792 10784 10775 10766 10755 10745 10737 10727 10721 10712 10696 10683 10663 10643 10622 10599 10574 10555 10526 10505 10494 10482 10478 10474 10480 10488 10495 10512 10523
10853 10852 10849 10846 10842 10838 10835 10832 10827 10823 10817 10812 10807 10801 10796 10789 10783 10774 10764 10754 10744 10734 10723 10714 10700 10692 10678 10662 10644 10621 10603 10578 10545 10524 10499 10484 10471 10460 10458 10455 10460 10466 10484 10503 10512
10846 10844 10842 10838 10834 10830 10826 10824 10820 10816 10810 10805 10799 10793 10787 10779 10772 10763 10753 10742 10731 10720 10710 10699 10686 10676 10665 10648 10627 10605 10585 10560 10522 10494 10476 10459 10449 10443 10440 10442 10446 10457 10469 10487 10501
10838 10836 10833 10830 10827 10823 10819 10816 10813 10808 10803 10797 10790 10784 10778 10769 10763 10754 10744 10732 10720 10708 10695 10686 10675 10661 10648 10631 10611 10590 10558 10537 10506 10476 10455 10449 10436 10431 10430 10435 10440 10450 10460 10468 10489
10831 10828 10826 10823 10820 10816 10813 10809 10805 10801 10795 10789 10782 10775 10770 10762 10750 10743 10733 10721 10709 10696 10682 10673 10660 10648 10635 10620 10596 10572 10550 10515 10483 10463 10443 10435 10429 10424 10424 10428 10434 10443 10453 10460 10475
10823 10822 10819 10816 10813 10810 10806 10801 10798 10794 10788 10781 10774 10767 10760 10755 10745 10731 10723 10711 10698 10685 10672 10661 10647 10634 10616 10603 10581 10560 10534 10501 10470 10450 10435 10426 10420 10419 10419 10424 10431 10441 10450 10461 10473
10815 10813 10812 10809 10806 10802 10799 10793 10790 10786 10780 10774 10766 10758 10751 10743 10739 10728 10712 10702 10690 10675 10661 10648 10630 10616 10597 10584 10569 10539 10513 10486 10461 10440 10428 10421 10416 10413 10414 10420 10426 10436 10449 10463 10470
10807 10805 10804 10802 10798 10794 10791 10785 10782 10778 10772 10766 10757 10750 10742 10732 10720 10715 10708 10696 10679 10664 10648 10632 10619 10606 10581 10564 10535 10521 10501 10482 10450 10433 10423 10416 10413 10409 10411 10414 10423 10435 10445 10460 10471
10798 10797 10796 10794 10789 10785 10781 10777 10773 10770 10764 10758 10749 10742 10735 10727 10717 10705 10694 10682 10668 10656 10637 10618 10604 10591 10576 10554 10538 10513 10498 10465 10444 10428 10418 10412 10411 10406 10407 10413 10422 10433 10447 10461 10479
10789 10788 10786 10784 10780 10775 10772 10769 10764 10760 10756 10750 10741 10732 10725 10718 10708 10701 10689 10677 10663 10646 10629 10609 10593 10579 10561 10556 10539 10513 10487 10460 10439 10425 10413 10408 10408 10404 10406 10412 10424 10433 10447 10460 10476
10778 10777 10776 10774 10770 10767 10764 10760 10757 10752 10747 10741 10732 10724 10716 10706 10699 10687 10677 10666 10653 10635 10618 10601 10589 10573 10560 10540 10523 10497 10473 10449 10431 10421 10412 10405 10406 10403 10407 10412 10422 10432 10442 10460 10475
10767 10766 10766 10763 10760 10757 10754 10751 10747 10744 10738 10734 10724 10714 10706 10697 10688 10680 10669 10656 10643 10626 10611 10594 10580 10562 10541 10527 10513 10494 10470 10446 10431 10417 10409 10405 10404 10403 10406 10414 10422 10436 10448 10463 10481
10757 10756 10756 10753 10749 10746 10744 10741 10737 10734 10730 10724 10716 10707 10699 10689 10679 10669 10658 10647 10636 10622 10604 10587 10571 10553 10529 10518 10498 10488 10470 10444 10430 10417 10408 10403 10403 10404 10406 10413 10426 10441 10449 10465 10482
10745 10745 10743 10741 10739 10735 10734 10732 10729 10724 10720 10714 10707 10699 10691 10682 10670 10661 10651 10644 10632 10614 10596 10578 10559 10545 10523 10509 10502 10488 10468 10441 10426 10413 10409 10402 10402 10404 10407 10412 10427 10442 10450 10467 10483
10733 10732 10732 10728 10727 10727 10725 10721 10718 10714 10711 10704 10699 10691 10684 10675 10667 10657 10644 10634 10622 10607 10589 10570 10553 10539 10527 10516 10495 10483 10462 10441 10425 10410 10406 10401 10401 10401 10406 10413 10425 10438 10449 10464 10480
10720 10720 10720 10718 10716 10717 10714 10713 10708 10704 10701 10694 10689 10683 10675 10665 10654 10643 10636 10625 10612 10598 10582 10565 10549 10528 10517 10503 10494 10474 10459 10434 10420 10410 10404 10400 10398 10399 10406 10412 10425 10442 10451 10460 10474
10707 10708 10707 10705 10704 10705 10704 10701 10696 10694 10689 10683 10679 10673 10666 10657 10646 10633 10624 10614 10604 10592 10574 10558 10542 10530 10514 10489 10471 10462 10455 10433 10418 10409 10400 10398 10396 10395 10403 10411 10426 10442 10450 10459 10468
10693 10694 10694 10692 10691 10692 10692 10689 10686 10684 10679 10673 10670 10664 10657 10648 10637 10626 10618 10607 10595 10584 10568 10553 10537 10522 10507 10492 10475 10464 10448 10430 10415 10405 10398 10394 10393 10393 10400 10411 10422 10438 10449 10462 10468
10677 10680 10681 10680 10676 10679 10678 10677 10675 10672 10667 10664 10660 10653 10648 10640 10631 10620 10610 10600 10589 10577 10560 10542 10527 10513 10496 10484 10470 10453 10442 10425 10409 10401 10392 10391 10390 10391 10396 10408 10418 10434 10449 10462 10466
10662 10664 10667 10666 10663 10665 10664 10664 10663 10661 10657 10653 10650 10644 10638 10631 10621 10612 10602 10592 10581 10570 10552 10536 10520 10505 10488 10467 10453 10445 10434 10418 10403 10393 10386 10385 10385 10387 10391 10402 10413 10426 10440 10456 10462
10645 10649 10653 10652 10650 10649 10651 10651 10650 10649 10646 10642 10637 10633 10628 10621 10611 10602 10591 10581 10571 10560 10544 10526 10510 10497 10482 10467 10452 10439 10428 10411 10398 10387 10381 10378 10381 10382 10387 10395 10406 10418 10432 10447 10461
10629 10634 10638 10637 10636 10638 10638 10636 10636 10637 10635 10631 10626 10622 10618 10611 10602 10591 10581 10571 10562 10552 10537 10521 10505 10490 10473 10458 10444 10432 10420 10405 10393 10383 10377 10373 10375 10378 10381 10389 10399 10411 10424 10437 10456
10613 10619 10622 10622 10623 10624 10625 10623 10621 10624 10623 10620 10615 10611 10607 10601 10593 10581 10572 10563 10554 10543 10529 10515 10501 10485 10468 10451 10439 10423 10413 10398 10386 10377 10372 10368 10368 10371 10375 10382 10391 10403 10413 10426 10442
10595 10604 10609 10608 10610 10611 10612 10611 10608 10608 10609 10608 10604 10600 10596 10590 10582 10571 10562 10554 10546 10535 10521 10507 10494 10478 10461 10444 10430 10415 10405 10394 10379 10369 10366 10363 10361 10363 10368 10374 10382 10395 10405 10414 10429
10578 10589 10593 10596 10596 10597 10599 10597 10597 10594 10595 10594 10592 10590 10584 10579 10571 10562 10553 10545 10537 10526 10515 10501 10486 10471 10455 10438 10425 10410 10400 10386 10373 10363 10358 10356 10357 10357 10359 10367 10376 10384 10398 10405 10414
10561 10574 10577 10580 10580 10582 10585 10585 10585 10583 10581 10579 10579 10578 10572 10568 10561 10553 10544 10536 10527 10519 10508 10494 10478 10464 10449 10433 10418 10403 10394 10381 10367 10357 10351 10349 10347 10352 10353 10357 10367 10377 10386 10399 10407
10548 10554 10558 10561 10565 10570 10571 10573 10573 10572 10570 10566 10566 10566 10563 10557 10550 10543 10535 10526 10519 10511 10500 10486 10472 10460 10443 10428 10411 10398 10391 10378 10361 10348 10340 10342 10339 10342 10347 10350 10357 10368 10376 10388 10401